QPF
0.05 0.07 0.10 0.12 0.15 0.16 0.15 0.14 0.13 0.13 0.13 0.14 0.11 0.07 0.07 0.07 0.05 0.03 0.01 0.01 0.01 0.00 0.00 0.00 0.00 0.00 0.00 0.00 0.00 0.00 0.00 0.00 0.01 0.01 0.00 0.00 0.00 0.00 0.00 0.00 0.00 0.00 0.00
0.03 0.03 0.05 0.07 0.10 0.12 0.12 0.12 0.12 0.12 0.12 0.13 0.15 0.14 0.13 0.10 0.08 0.05 0.03 0.02 0.01 0.00 0.00 0.00 0.00 0.00 0.00 0.00 0.01 0.01 0.01 0.00 0.01 0.01 0.00 0.00 0.00 0.00 0.00 0.00 0.00 0.00 0.00
0.02 0.01 0.02 0.03 0.06 0.08 0.10 0.10 0.11 0.11 0.12 0.14 0.17 0.19 0.18 0.14 0.11 0.07 0.05 0.03 0.02 0.01 0.01 0.01 0.01 0.01 0.01 0.01 0.01 0.01 0.01 0.00 0.00 0.00 0.01 0.01 0.00 0.00 0.00 0.00 0.00 0.00 0.00
0.01 0.01 0.00 0.01 0.02 0.03 0.04 0.06 0.07 0.09 0.11 0.13 0.12 0.11 0.10 0.09 0.08 0.09 0.08 0.06 0.04 0.03 0.02 0.02 0.02 0.02 0.01 0.01 0.00 0.00 0.00 0.00 0.00 0.00 0.00 0.01 0.01 0.01 0.01 0.00 0.00 0.00 0.00
0.00 0.00 0.00 0.00 0.00 0.01 0.02 0.03 0.05 0.07 0.08 0.08 0.08 0.09 0.09 0.07 0.07 0.08 0.07 0.05 0.04 0.03 0.02 0.01 0.01 0.00 0.00 0.00 0.00 0.00 0.00 0.00 0.00 0.00 0.00 0.00 0.00 0.01 0.02 0.01 0.00 0.00 0.00
0.00 0.00 0.00 0.00 0.00 0.00 0.01 0.02 0.04 0.06 0.08 0.08 0.08 0.08 0.07 0.06 0.05 0.04 0.04 0.03 0.03 0.02 0.01 0.01 0.00 0.00 0.00 0.00 0.00 0.00 0.00 0.00 0.00 0.00 0.00 0.00 0.00 0.00 0.01 0.01 0.01 0.00 0.00
0.00 0.00 0.00 0.00 0.00 0.00 0.01 0.02 0.03 0.04 0.05 0.06 0.06 0.06 0.06 0.05 0.04 0.04 0.03 0.03 0.02 0.01 0.01 0.00 0.00 0.00 0.00 0.00 0.00 0.00 0.00 0.00 0.00 0.00 0.00 0.00 0.00 0.00 0.00 0.01 0.01 0.01 0.00
0.00 0.00 0.00 0.00 0.00 0.00 0.00 0.01 0.01 0.02 0.03 0.03 0.03 0.04 0.04 0.04 0.03 0.02 0.02 0.01 0.01 0.01 0.01 0.00 0.00 0.00 0.00 0.00 0.00 0.00 0.00 0.00 0.00 0.00 0.00 0.00 0.00 0.00 0.00 0.00 0.01 0.00 0.00
0.00 0.00 0.00 0.00 0.00 0.00 0.00 0.00 0.00 0.01 0.01 0.02 0.02 0.02 0.02 0.02 0.02 0.01 0.01 0.01 0.01 0.01 0.01 0.01 0.00 0.00 0.00 0.00 0.00 0.00 0.00 0.00 0.00 0.00 0.00 0.00 0.00 0.00 0.00 0.00 0.00 0.00 0.00
0.00 0.00 0.00 0.00 0.00 0.00 0.00 0.00 0.00 0.00 0.00 0.01 0.01 0.02 0.02 0.02 0.02 0.01 0.01 0.01 0.01 0.01 0.01 0.00 0.00 0.00 0.00 0.00 0.00 0.00 0.00 0.00 0.00 0.00 0.00 0.00 0.00 0.00 0.00 0.00 0.00 0.00 0.00
0.00 0.00 0.00 0.00 0.00 0.00 0.00 0.00 0.00 0.00 0.00 0.00 0.00 0.01 0.01 0.01 0.01 0.01 0.01 0.00 0.00 0.00 0.00 0.00 0.00 0.00 0.00 0.00 0.00 0.00 0.00 0.00 0.00 0.00 0.00 0.00 0.00 0.00 0.00 0.00 0.00 0.00 0.00
0.00 0.00 0.00 0.00 0.00 0.00 0.00 0.00 0.00 0.00 0.00 0.00 0.00 0.00 0.00 0.00 0.00 0.00 0.00 0.00 0.00 0.00 0.00 0.00 0.00 0.00 0.00 0.00 0.00 0.00 0.00 0.00 0.00 0.00 0.00 0.00 0.00 0.00 0.00 0.00 0.00 0.00 0.00
0.00 0.00 0.00 0.00 0.00 0.00 0.00 0.00 0.00 0.00 0.00 0.00 0.00 0.00 0.00 0.00 0.00 0.00 0.00 0.00 0.00 0.00 0.00 0.00 0.00 0.00 0.00 0.00 0.00 0.00 0.00 0.00 0.00 0.00 0.00 0.00 0.00 0.00 0.00 0.00 0.00 0.00 0.00
0.00 0.00 0.00 0.00 0.00 0.00 0.00 0.00 0.00 0.00 0.00 0.00 0.00 0.00 0.00 0.00 0.00 0.00 0.00 0.00 0.00 0.00 0.00 0.00 0.00 0.00 0.00 0.00 0.00 0.00 0.00 0.00 0.00 0.00 0.00 0.00 0.00 0.00 0.00 0.00 0.00 0.00 0.00
0.00 0.00 0.00 0.00 0.00 0.00 0.00 0.00 0.00 0.00 0.00 0.00 0.00 0.00 0.00 0.00 0.00 0.00 0.00 0.00 0.00 0.00 0.00 0.00 0.00 0.00 0.00 0.00 0.00 0.00 0.00 0.00 0.00 0.00 0.00 0.00 0.00 0.00 0.00 0.00 0.00 0.00 0.00
0.00 0.00 0.00 0.00 0.00 0.00 0.00 0.00 0.00 0.00 0.00 0.00 0.00 0.00 0.00 0.00 0.00 0.00 0.00 0.00 0.00 0.00 0.00 0.00 0.00 0.00 0.00 0.00 0.00 0.00 0.00 0.00 0.00 0.00 0.00 0.00 0.00 0.00 0.00 0.00 0.00 0.00 0.00
0.00 0.00 0.00 0.00 0.00 0.00 0.00 0.00 0.00 0.00 0.00 0.00 0.00 0.00 0.00 0.00 0.00 0.00 0.00 0.00 0.00 0.00 0.00 0.00 0.00 0.00 0.00 0.00 0.00 0.00 0.00 0.00 0.00 0.00 0.00 0.00 0.00 0.00 0.00 0.00 0.00 0.00 0.00
0.00 0.00 0.00 0.00 0.00 0.00 0.00 0.00 0.00 0.00 0.00 0.00 0.00 0.00 0.00 0.00 0.00 0.00 0.00 0.00 0.00 0.00 0.00 0.00 0.00 0.00 0.00 0.00 0.00 0.00 0.00 0.00 0.00 0.00 0.00 0.00 0.00 0.00 0.00 0.00 0.00 0.00 0.00
0.00 0.00 0.00 0.00 0.00 0.00 0.00 0.00 0.00 0.00 0.00 0.00 0.00 0.00 0.00 0.00 0.00 0.00 0.00 0.00 0.00 0.00 0.00 0.00 0.00 0.00 0.00 0.00 0.00 0.00 0.00 0.00 0.00 0.00 0.00 0.00 0.00 0.00 0.00 0.00 0.00 0.00 0.00
0.00 0.00 0.00 0.00 0.00 0.00 0.00 0.00 0.00 0.00 0.00 0.00 0.00 0.00 0.00 0.00 0.00 0.00 0.00 0.00 0.00 0.00 0.00 0.00 0.00 0.00 0.00 0.00 0.00 0.00 0.00 0.00 0.00 0.00 0.00 0.00 0.00 0.00 0.00 0.00 0.00 0.00 0.00
0.00 0.00 0.00 0.00 0.00 0.00 0.00 0.00 0.00 0.00 0.00 0.01 0.01 0.01 0.00 0.00 0.00 0.00 0.00 0.00 0.00 0.00 0.00 0.00 0.00 0.00 0.00 0.00 0.00 0.00 0.00 0.00 0.00 0.00 0.00 0.00 0.00 0.00 0.00 0.00 0.00 0.00 0.00
0.00 0.00 0.00 0.00 0.00 0.00 0.00 0.00 0.00 0.00 0.00 0.00 0.00 0.00 0.00 0.00 0.00 0.00 0.00 0.00 0.00 0.00 0.00 0.00 0.00 0.00 0.00 0.00 0.00 0.00 0.00 0.00 0.00 0.00 0.00 0.00 0.00 0.00 0.00 0.00 0.00 0.00 0.00
0.00 0.00 0.00 0.00 0.00 0.00 0.00 0.00 0.00 0.00 0.00 0.00 0.00 0.00 0.00 0.00 0.00 0.00 0.00 0.01 0.01 0.01 0.01 0.01 0.00 0.00 0.00 0.00 0.00 0.00 0.00 0.00 0.00 0.00 0.00 0.00 0.00 0.00 0.00 0.00 0.00 0.00 0.00
0.00 0.00 0.00 0.00 0.00 0.00 0.00 0.00 0.00 0.00 0.00 0.00 0.00 0.00 0.00 0.00 0.01 0.01 0.01 0.01 0.01 0.01 0.01 0.01 0.01 0.01 0.01 0.01 0.01 0.00 0.00 0.00 0.00 0.00 0.00 0.00 0.00 0.00 0.00 0.00 0.00 0.00 0.00
0.01 0.01 0.01 0.01 0.01 0.02 0.01 0.00 0.00 0.00 0.00 0.00 0.00 0.01 0.01 0.01 0.01 0.01 0.01 0.01 0.01 0.02 0.01 0.01 0.01 0.01 0.01 0.01 0.01 0.01 0.00 0.00 0.00 0.00 0.00 0.00 0.00 0.00 0.00 0.00 0.00 0.00 0.00
0.01 0.01 0.01 0.02 0.03 0.03 0.03 0.01 0.01 0.00 0.00 0.00 0.00 0.01 0.01 0.01 0.01 0.01 0.01 0.02 0.02 0.02 0.02 0.01 0.01 0.01 0.01 0.01 0.01 0.01 0.00 0.00 0.00 0.00 0.00 0.00 0.00 0.00 0.00 0.00 0.00 0.00 0.00
MSLP
1014.72 1014.69 1014.64 1014.58 1014.51 1014.48 1014.52 1014.66 1014.92 1015.30 1015.76 1016.27 1016.78 1017.25 1017.64 1017.92 1018.12 1018.24 1018.31 1018.38 1018.45 1018.55 1018.69 1018.87 1019.07 1019.28 1019.49 1019.68 1019.86 1020.00 1020.12 1020.19 1020.22 1020.19 1020.09 1019.93 1019.71 1019.45 1019.18 1018.93 1018.74 1018.63 1018.63
1014.84 1014.81 1014.75 1014.65 1014.54 1014.45 1014.44 1014.53 1014.76 1015.12 1015.59 1016.11 1016.65 1017.14 1017.56 1017.88 1018.11 1018.25 1018.35 1018.42 1018.51 1018.61 1018.75 1018.92 1019.11 1019.31 1019.50 1019.68 1019.84 1019.99 1020.10 1020.18 1020.21 1020.19 1020.11 1019.96 1019.75 1019.51 1019.26 1019.04 1018.88 1018.82 1018.87
1014.74 1014.74 1014.69 1014.60 1014.49 1014.39 1014.36 1014.44 1014.65 1014.99 1015.44 1015.96 1016.50 1017.01 1017.45 1017.80 1018.07 1018.26 1018.40 1018.51 1018.63 1018.77 1018.92 1019.09 1019.27 1019.44 1019.60 1019.75 1019.89 1020.01 1020.11 1020.19 1020.23 1020.23 1020.17 1020.04 1019.86 1019.65 1019.43 1019.25 1019.14 1019.13 1019.23
1014.47 1014.52 1014.52 1014.47 1014.39 1014.32 1014.31 1014.39 1014.59 1014.91 1015.33 1015.83 1016.35 1016.85 1017.29 1017.67 1017.98 1018.23 1018.43 1018.62 1018.80 1018.98 1019.17 1019.34 1019.51 1019.65 1019.78 1019.89 1019.99 1020.08 1020.16 1020.24 1020.29 1020.30 1020.26 1020.16 1020.01 1019.83 1019.65 1019.51 1019.44 1019.48 1019.63
1014.11 1014.22 1014.29 1014.31 1014.29 1014.28 1014.30 1014.39 1014.59 1014.88 1015.27 1015.72 1016.20 1016.67 1017.12 1017.51 1017.86 1018.18 1018.46 1018.73 1018.99 1019.23 1019.45 1019.65 1019.80 1019.92 1020.01 1020.07 1020.13 1020.19 1020.25 1020.31 1020.37 1020.39 1020.37 1020.30 1020.18 1020.03 1019.88 1019.77 1019.73 1019.80 1019.98
1013.75 1013.92 1014.07 1014.16 1014.23 1014.28 1014.35 1014.47 1014.66 1014.93 1015.27 1015.67 1016.10 1016.53 1016.95 1017.36 1017.75 1018.12 1018.49 1018.84 1019.18 1019.49 1019.75 1019.97 1020.12 1020.22 1020.27 1020.29 1020.31 1020.33 1020.36 1020.41 1020.46 1020.49 1020.48 1020.43 1020.32 1020.19 1020.06 1019.98 1019.96 1020.05 1020.25
1013.49 1013.71 1013.91 1014.08 1014.22 1014.33 1014.46 1014.60 1014.80 1015.05 1015.35 1015.69 1016.06 1016.45 1016.85 1017.26 1017.68 1018.11 1018.54 1018.97 1019.38 1019.74 1020.05 1020.28 1020.43 1020.51 1020.53 1020.51 1020.49 1020.48 1020.49 1020.53 1020.57 1020.60 1020.59 1020.54 1020.45 1020.32 1020.20 1020.13 1020.12 1020.22 1020.43
1013.37 1013.61 1013.86 1014.08 1014.27 1014.45 1014.61 1014.79 1014.99 1015.23 1015.49 1015.79 1016.12 1016.47 1016.85 1017.26 1017.70 1018.16 1018.65 1019.13 1019.59 1019.99 1020.33 1020.56 1020.71 1020.76 1020.75 1020.71 1020.66 1020.63 1020.63 1020.65 1020.68 1020.71 1020.70 1020.65 1020.55 1020.43 1020.31 1020.23 1020.23 1020.33 1020.54
1013.41 1013.65 1013.91 1014.15 1014.38 1014.59 1014.80 1015.00 1015.21 1015.45 1015.70 1015.97 1016.27 1016.60 1016.97 1017.38 1017.83 1018.32 1018.83 1019.34 1019.82 1020.23 1020.57 1020.80 1020.92 1020.95 1020.93 1020.86 1020.80 1020.76 1020.75 1020.78 1020.81 1020.83 1020.83 1020.77 1020.67 1020.55 1020.43 1020.35 1020.34 1020.44 1020.65
1013.59 1013.80 1014.04 1014.28 1014.52 1014.75 1014.97 1015.20 1015.43 1015.67 1015.93 1016.20 1016.50 1016.83 1017.20 1017.61 1018.07 1018.57 1019.08 1019.59 1020.06 1020.46 1020.77 1020.97 1021.07 1021.08 1021.03 1020.96 1020.90 1020.87 1020.87 1020.91 1020.96 1020.99 1020.99 1020.94 1020.84 1020.71 1020.59 1020.51 1020.51 1020.61 1020.82
1013.86 1014.03 1014.23 1014.44 1014.66 1014.88 1015.11 1015.34 1015.59 1015.86 1016.14 1016.44 1016.76 1017.11 1017.50 1017.93 1018.40 1018.89 1019.39 1019.87 1020.31 1020.67 1020.93 1021.08 1021.15 1021.13 1021.08 1021.01 1020.96 1020.96 1021.00 1021.07 1021.14 1021.20 1021.22 1021.18 1021.09 1020.97 1020.85 1020.77 1020.76 1020.87 1021.07
1014.17 1014.29 1014.43 1014.59 1014.77 1014.96 1015.17 1015.41 1015.68 1015.97 1016.29 1016.63 1017.00 1017.39 1017.82 1018.27 1018.75 1019.24 1019.72 1020.16 1020.55 1020.85 1021.05 1021.15 1021.18 1021.14 1021.08 1021.03 1021.02 1021.05 1021.13 1021.25 1021.37 1021.47 1021.51 1021.50 1021.43 1021.31 1021.20 1021.12 1021.12 1021.22 1021.43
1014.49 1014.55 1014.63 1014.73 1014.84 1014.98 1015.17 1015.39 1015.66 1015.98 1016.33 1016.72 1017.15 1017.60 1018.07 1018.57 1019.07 1019.56 1020.02 1020.42 1020.75 1020.99 1021.14 1021.20 1021.19 1021.14 1021.08 1021.05 1021.08 1021.16 1021.30 1021.47 1021.64 1021.78 1021.86 1021.88 1021.83 1021.73 1021.63 1021.55 1021.55 1021.65 1021.84
1014.78 1014.79 1014.81 1014.83 1014.87 1014.95 1015.08 1015.28 1015.54 1015.87 1016.25 1016.69 1017.17 1017.68 1018.21 1018.75 1019.28 1019.78 1020.23 1020.62 1020.91 1021.11 1021.21 1021.23 1021.20 1021.14 1021.10 1021.10 1021.16 1021.29 1021.48 1021.71 1021.93 1022.11 1022.23 1022.28 1022.26 1022.18 1022.08 1022.01 1022.00 1022.08 1022.26
1015.04 1015.00 1014.95 1014.89 1014.86 1014.86 1014.93 1015.08 1015.32 1015.64 1016.04 1016.51 1017.03 1017.59 1018.18 1018.77 1019.35 1019.87 1020.34 1020.72 1020.99 1021.17 1021.26 1021.26 1021.22 1021.17 1021.15 1021.18 1021.27 1021.45 1021.68 1021.95 1022.21 1022.43 1022.59 1022.66 1022.66 1022.60 1022.51 1022.43 1022.41 1022.47 1022.62
1015.26 1015.19 1015.07 1014.94 1014.82 1014.75 1014.74 1014.83 1015.02 1015.31 1015.70 1016.18 1016.74 1017.34 1017.98 1018.62 1019.24 1019.81 1020.30 1020.70 1021.00 1021.19 1021.28 1021.29 1021.26 1021.23 1021.22 1021.28 1021.41 1021.61 1021.87 1022.16 1022.45 1022.70 1022.88 1022.97 1022.98 1022.93 1022.85 1022.77 1022.73 1022.77 1022.88
1015.46 1015.34 1015.16 1014.96 1014.77 1014.61 1014.53 1014.54 1014.67 1014.92 1015.29 1015.76 1016.32 1016.95 1017.62 1018.30 1018.97 1019.59 1020.13 1020.57 1020.91 1021.13 1021.25 1021.30 1021.30 1021.29 1021.31 1021.39 1021.53 1021.75 1022.02 1022.32 1022.61 1022.87 1023.06 1023.16 1023.19 1023.15 1023.07 1022.99 1022.94 1022.95 1023.04
1015.63 1015.47 1015.24 1014.97 1014.70 1014.48 1014.32 1014.27 1014.33 1014.52 1014.85 1015.29 1015.83 1016.47 1017.15 1017.87 1018.57 1019.24 1019.83 1020.33 1020.72 1021.00 1021.18 1021.27 1021.31 1021.33 1021.37 1021.46 1021.61 1021.82 1022.09 1022.38 1022.67 1022.92 1023.11 1023.23 1023.27 1023.24 1023.17 1023.09 1023.04 1023.03 1023.10
1015.78 1015.56 1015.28 1014.96 1014.64 1014.35 1014.14 1014.02 1014.03 1014.17 1014.44 1014.84 1015.35 1015.97 1016.65 1017.38 1018.11 1018.81 1019.45 1020.00 1020.45 1020.79 1021.03 1021.17 1021.25 1021.31 1021.38 1021.47 1021.62 1021.82 1022.06 1022.34 1022.61 1022.85 1023.04 1023.17 1023.22 1023.22 1023.17 1023.11 1023.06 1023.06 1023.10
1015.88 1015.61 1015.28 1014.92 1014.56 1014.24 1013.99 1013.84 1013.80 1013.90 1014.12 1014.47 1014.95 1015.53 1016.19 1016.90 1017.63 1018.35 1019.02 1019.62 1020.12 1020.51 1020.79 1020.99 1021.12 1021.20 1021.28 1021.38 1021.52 1021.70 1021.93 1022.18 1022.43 1022.67 1022.86 1023.00 1023.08 1023.11 1023.10 1023.07 1023.04 1023.05 1023.10
1015.92 1015.60 1015.23 1014.85 1014.48 1014.16 1013.90 1013.73 1013.67 1013.73 1013.92 1014.23 1014.66 1015.19 1015.81 1016.49 1017.21 1017.91 1018.59 1019.20 1019.73 1020.15 1020.48 1020.71 1020.87 1020.98 1021.08 1021.18 1021.31 1021.47 1021.68 1021.91 1022.15 1022.39 1022.60 1022.76 1022.87 1022.94 1022.97 1022.99 1023.00 1023.03 1023.09
1015.89 1015.53 1015.14 1014.76 1014.40 1014.09 1013.85 1013.69 1013.64 1013.69 1013.86 1014.13 1014.51 1014.99 1015.56 1016.19 1016.85 1017.53 1018.18 1018.77 1019.30 1019.74 1020.08 1020.33 1020.51 1020.64 1020.75 1020.85 1020.98 1021.13 1021.33 1021.55 1021.79 1022.03 1022.26 1022.45 1022.61 1022.73 1022.81 1022.87 1022.93 1022.99 1023.08
1015.80 1015.40 1015.01 1014.64 1014.31 1014.04 1013.84 1013.72 1013.69 1013.75 1013.90 1014.15 1014.49 1014.92 1015.42 1015.98 1016.58 1017.19 1017.79 1018.34 1018.84 1019.26 1019.60 1019.85 1020.04 1020.18 1020.29 1020.40 1020.53 1020.69 1020.88 1021.11 1021.35 1021.61 1021.86 1022.09 1022.29 1022.45 1022.59 1022.70 1022.80 1022.91 1023.03
1015.66 1015.25 1014.86 1014.52 1014.23 1014.01 1013.86 1013.79 1013.79 1013.87 1014.02 1014.25 1014.55 1014.92 1015.36 1015.84 1016.36 1016.89 1017.41 1017.90 1018.34 1018.72 1019.03 1019.27 1019.46 1019.60 1019.72 1019.84 1019.97 1020.14 1020.34 1020.57 1020.84 1021.11 1021.39 1021.65 1021.89 1022.09 1022.27 1022.43 1022.57 1022.71 1022.86
1015.53 1015.11 1014.74 1014.43 1014.19 1014.01 1013.91 1013.88 1013.91 1014.01 1014.16 1014.37 1014.64 1014.95 1015.31 1015.72 1016.14 1016.58 1017.02 1017.43 1017.80 1018.12 1018.39 1018.61 1018.78 1018.91 1019.04 1019.17 1019.31 1019.49 1019.71 1019.96 1020.24 1020.53 1020.83 1021.11 1021.38 1021.62 1021.83 1022.01 1022.19 1022.36 1022.53
1015.45 1015.04 1014.69 1014.40 1014.19 1014.05 1013.98 1013.98 1014.03 1014.13 1014.27 1014.46 1014.68 1014.94 1015.23 1015.55 1015.89 1016.23 1016.58 1016.90 1017.20 1017.46 1017.67 1017.85 1018.00 1018.13 1018.26 1018.40 1018.56 1018.76 1018.99 1019.26 1019.55 1019.85 1020.16 1020.46 1020.73 1020.99 1021.21 1021.41 1021.60 1021.79 1021.99
Thickness
5644 5651 5658 5663 5666 5668 5671 5673 5675 5675 5674 5673 5672 5672 5672 5672 5672 5673 5673 5673 5672 5672 5671 5670 5669 5668 5666 5665 5665 5664 5662 5661 5660 5659 5658 5659 5659 5658 5657 5655 5653 5650 5646
5637 5644 5650 5656 5661 5664 5666 5668 5670 5671 5671 5671 5669 5668 5667 5667 5667 5666 5666 5666 5665 5665 5664 5663 5661 5660 5659 5657 5656 5655 5654 5653 5652 5649 5647 5646 5647 5648 5647 5645 5642 5639 5636
5632 5639 5644 5650 5655 5658 5662 5664 5665 5666 5667 5666 5663 5661 5659 5658 5657 5657 5657 5657 5657 5656 5655 5654 5653 5652 5651 5649 5647 5646 5645 5643 5642 5640 5638 5635 5634 5634 5636 5633 5630 5627 5624
5632 5636 5640 5644 5649 5653 5656 5658 5660 5661 5660 5660 5658 5656 5654 5652 5652 5651 5650 5649 5648 5648 5647 5645 5644 5643 5641 5640 5638 5637 5636 5634 5632 5630 5629 5628 5626 5623 5623 5621 5617 5614 5610
5630 5634 5639 5643 5645 5647 5650 5652 5653 5653 5654 5654 5653 5651 5650 5648 5645 5643 5640 5638 5638 5637 5636 5635 5634 5633 5631 5630 5629 5627 5626 5624 5622 5620 5619 5618 5616 5614 5611 5610 5605 5600 5596
5626 5631 5635 5637 5637 5639 5641 5643 5644 5644 5645 5646 5646 5645 5643 5639 5636 5634 5631 5629 5627 5626 5626 5625 5624 5622 5621 5619 5618 5616 5615 5613 5612 5610 5608 5607 5605 5603 5601 5600 5596 5590 5583
5621 5624 5626 5628 5629 5631 5632 5633 5635 5635 5635 5636 5637 5636 5635 5633 5630 5627 5624 5621 5618 5615 5614 5614 5612 5611 5610 5608 5607 5605 5604 5602 5600 5599 5597 5595 5594 5592 5591 5589 5587 5583 5575
5617 5619 5621 5622 5622 5623 5624 5624 5625 5626 5626 5627 5626 5626 5625 5623 5620 5618 5616 5613 5609 5606 5604 5602 5601 5600 5598 5597 5595 5594 5592 5590 5588 5587 5585 5583 5581 5579 5578 5577 5576 5574 5568
5611 5612 5613 5614 5614 5614 5615 5616 5616 5616 5616 5616 5615 5614 5613 5612 5609 5607 5605 5602 5598 5595 5592 5590 5589 5587 5585 5584 5583 5581 5580 5578 5576 5574 5572 5570 5568 5566 5564 5563 5563 5562 5561
5600 5603 5604 5604 5604 5605 5605 5605 5606 5606 5605 5605 5605 5603 5601 5599 5597 5594 5591 5589 5586 5583 5581 5578 5576 5574 5573 5571 5570 5568 5567 5566 5563 5561 5559 5557 5555 5553 5552 5550 5549 5548 5548
5590 5592 5593 5594 5594 5594 5594 5594 5594 5594 5594 5593 5592 5590 5587 5585 5583 5581 5578 5576 5573 5571 5568 5566 5564 5562 5560 5558 5557 5555 5554 5552 5550 5548 5546 5544 5542 5540 5538 5537 5536 5535 5534
5580 5581 5582 5582 5582 5582 5583 5583 5583 5583 5583 5582 5580 5577 5575 5572 5570 5568 5565 5563 5561 5558 5556 5554 5551 5549 5547 5546 5544 5543 5541 5539 5537 5534 5532 5530 5528 5526 5524 5523 5522 5521 5520
5569 5568 5569 5570 5571 5572 5572 5572 5572 5572 5571 5570 5568 5565 5563 5561 5558 5556 5553 5551 5549 5546 5543 5541 5539 5537 5535 5533 5532 5530 5528 5526 5524 5521 5519 5517 5515 5513 5511 5510 5508 5507 5507
5558 5558 5558 5558 5560 5561 5562 5563 5562 5562 5561 5559 5557 5554 5552 5549 5547 5545 5542 5539 5537 5534 5531 5529 5527 5525 5523 5521 5520 5517 5515 5512 5510 5508 5506 5504 5502 5500 5498 5497 5495 5495 5493
5549 5550 5550 5550 5550 5551 5553 5554 5554 5553 5552 5550 5547 5545 5542 5538 5535 5533 5530 5527 5524 5522 5520 5517 5515 5513 5511 5509 5507 5505 5503 5500 5497 5495 5493 5492 5490 5489 5487 5485 5483 5482 5480
5539 5540 5542 5542 5543 5543 5545 5545 5545 5545 5543 5541 5539 5535 5532 5528 5525 5521 5518 5515 5513 5510 5508 5505 5503 5501 5500 5499 5497 5494 5491 5488 5485 5483 5481 5480 5478 5477 5476 5475 5474 5472 5469
5527 5530 5531 5533 5535 5536 5538 5538 5538 5537 5535 5533 5530 5526 5523 5519 5515 5512 5508 5505 5502 5499 5497 5494 5492 5490 5489 5489 5487 5484 5480 5477 5474 5471 5470 5468 5467 5464 5463 5463 5462 5461 5461
5517 5518 5520 5523 5526 5528 5529 5530 5530 5528 5527 5524 5522 5518 5514 5510 5506 5502 5498 5495 5491 5489 5486 5484 5482 5480 5479 5478 5476 5473 5468 5465 5463 5461 5459 5457 5455 5454 5452 5451 5449 5448 5448
5505 5506 5509 5512 5516 5518 5520 5521 5521 5519 5518 5516 5514 5510 5507 5502 5497 5493 5489 5485 5482 5479 5477 5475 5472 5470 5469 5469 5466 5463 5457 5455 5453 5451 5449 5448 5446 5446 5444 5441 5439 5438 5437
5494 5496 5499 5502 5506 5508 5510 5511 5511 5510 5510 5509 5507 5503 5499 5495 5490 5486 5481 5477 5474 5471 5468 5465 5463 5461 5459 5459 5457 5454 5448 5445 5443 5442 5440 5440 5438 5437 5436 5432 5430 5429 5428
5484 5487 5488 5490 5493 5497 5499 5500 5501 5501 5502 5500 5497 5493 5490 5486 5482 5477 5473 5469 5465 5461 5458 5456 5454 5452 5451 5450 5449 5446 5440 5439 5436 5434 5432 5431 5431 5430 5429 5426 5423 5422 5421
5474 5476 5477 5479 5482 5485 5488 5489 5489 5490 5490 5489 5486 5483 5480 5477 5473 5468 5464 5460 5457 5453 5450 5447 5445 5444 5443 5442 5441 5440 5436 5433 5430 5428 5426 5424 5424 5423 5422 5420 5418 5417 5415
5462 5464 5466 5468 5470 5472 5475 5476 5477 5478 5479 5477 5476 5473 5471 5468 5464 5460 5456 5452 5449 5447 5444 5441 5439 5437 5436 5435 5435 5434 5432 5429 5424 5422 5421 5419 5418 5417 5415 5414 5412 5410 5407
5451 5453 5455 5458 5460 5461 5463 5465 5466 5467 5467 5466 5465 5463 5460 5458 5455 5452 5449 5447 5444 5441 5438 5436 5434 5433 5431 5429 5428 5427 5426 5424 5421 5418 5416 5414 5412 5411 5408 5407 5405 5403 5400
5441 5442 5444 5447 5450 5451 5452 5454 5455 5456 5456 5456 5455 5453 5452 5450 5447 5445 5444 5442 5441 5439 5436 5434 5431 5428 5427 5428 5426 5422 5420 5417 5415 5411 5408 5406 5404 5402 5401 5399 5398 5396 5394
5431 5433 5435 5437 5439 5440 5442 5443 5444 5445 5445 5445 5445 5444 5443 5442 5440 5438 5436 5435 5434 5433 5432 5430 5427 5426 5425 5424 5422 5420 5417 5414 5411 5406 5403 5401 5399 5398 5397 5395 5393 5391 5389